Location: Borovka
(49.7741°N, 14.5280°E)
Time: 01:15:12
(UTC+00:00)

BlueWalker 3 - Pass Details

Date: 28 January 2026
Orbit: 451 x 461 km, 53.2° (Epoch: 13 February)

Event Time Altitude Azimuth Distance (km) Brightness Sun altitude
Rises 16:27:03 0° 247° (WSW) 2,454 8.3 -6.3°
Reaches altitude 10° 16:29:10 10° 248° (WSW) 1,582 6.3 -6.6°
Maximum altitude 16:32:44 86° 334° (NNW) 458 1.7 -7.2°
Enters shadow 16:36:18 10° 67° (ENE) 1,579 3.8 -7.7°
